• In Germany
  • List of Countries
  • For 7 days
  • Water Temperature
  • Satellite Maps
  • Weather Map
  • Weather Widgets
  • user-avatar
    Login

    Hourly Weather Seli

    Today, 23 October, Tuesday

    Time Temperature Precipitation Wind Pressure Humidity
    00:00 +21°C° 0.6 mm 3 mps 749 mmHg 60%
    01:00 +21°C° 0.6 mm 3 mps 749 mmHg 61%
    02:00 +21°C° 0.6 mm 3 mps 748 mmHg 62%
    03:00 +21°C° 0.4 mm 4 mps 748 mmHg 63%
    04:00 +21°C° 0.4 mm 4 mps 748 mmHg 64%
    05:00 +21°C° 0.4 mm 4 mps 748 mmHg 65%
    06:00 +21°C° 0.4 mm 4 mps 748 mmHg 65%
    07:00 +21°C° 0.4 mm 4 mps 748 mmHg 66%
    08:00 +21°C° 0.4 mm 5 mps 748 mmHg 66%
    09:00 +22°C° 0.5 mm 5 mps 748 mmHg 62%
    10:00 +22°C° 0.5 mm 5 mps 748 mmHg 59%
    11:00 +23°C° 0.5 mm 5 mps 748 mmHg 55%
    12:00 +23°C° 0.3 mm 4 mps 747 mmHg 54%
    13:00 +23°C° 0.3 mm 4 mps 747 mmHg 54%
    14:00 +23°C° 0.3 mm 4 mps 747 mmHg 53%
    15:00 +23°C° 0.3 mm 4 mps 746 mmHg 54%
    16:00 +23°C° 0.3 mm 4 mps 746 mmHg 55%
    17:00 +22°C° 0.3 mm 4 mps 746 mmHg 56%
    18:00 +22°C° 0.5 mm 4 mps 746 mmHg 59%
    19:00 +22°C° 0.5 mm 4 mps 746 mmHg 61%
    20:00 +22°C° 0.5 mm 4 mps 746 mmHg 64%
    21:00 +21°C° 0.3 mm 5 mps 746 mmHg 65%
    22:00 +21°C° 0.3 mm 5 mps 746 mmHg 66%
    23:00 +21°C° 0.3 mm 5 mps 746 mmHg 67%

    Tomorrow, 24 October, Wednesday

    Time Temperature Precipitation Wind Pressure Humidity
    00:00 +21°C° 0.3 mm 5 mps 746 mmHg 68%
    01:00 +21°C° 0.3 mm 5 mps 745 mmHg 69%
    02:00 +20°C° 0.3 mm 4 mps 745 mmHg 70%
    03:00 +20°C° 0.3 mm 5 mps 745 mmHg 70%
    04:00 +20°C° 0.3 mm 5 mps 745 mmHg 71%
    05:00 +20°C° 0.3 mm 5 mps 744 mmHg 72%
    06:00 +20°C° 0.4 mm 5 mps 744 mmHg 70%
    07:00 +21°C° 0.4 mm 5 mps 744 mmHg 68%
    08:00 +21°C° 0.4 mm 5 mps 744 mmHg 66%
    09:00 +22°C° 0.2 mm 4 mps 744 mmHg 63%
    10:00 +23°C° 0.2 mm 4 mps 744 mmHg 60%
    11:00 +25°C° 0.2 mm 4 mps 744 mmHg 58%
    12:00 +25°C° 0.1 mm 4 mps 744 mmHg 58%
    13:00 +25°C° 0.1 mm 4 mps 744 mmHg 58%
    14:00 +25°C° 0.1 mm 4 mps 743 mmHg 58%
    15:00 +23°C° 0.2 mm 4 mps 743 mmHg 60%
    16:00 +23°C° 0.2 mm 4 mps 743 mmHg 62%
    17:00 +22°C° 0.2 mm 3 mps 743 mmHg 64%
    18:00 +22°C° 0.1 mm 3 mps 743 mmHg 66%
    19:00 +22°C° 0.1 mm 3 mps 743 mmHg 68%
    20:00 +21°C° 0.1 mm 3 mps 743 mmHg 69%
    21:00 +21°C° 0 mm 3 mps 743 mmHg 71%
    22:00 +21°C° 0 mm 3 mps 744 mmHg 72%
    23:00 +21°C° 0 mm 4 mps 744 mmHg 73%

    Day after tomorrow, 25 October, Thursday

    Time Temperature Precipitation Wind Pressure Humidity
    00:00 +20°C° 0 mm 3 mps 744 mmHg 74%
    01:00 +20°C° 0 mm 3 mps 744 mmHg 74%
    02:00 +20°C° 0 mm 3 mps 744 mmHg 75%
    03:00 +20°C° 0 mm 3 mps 744 mmHg 75%
    04:00 +19°C° 0 mm 3 mps 744 mmHg 75%
    05:00 +19°C° 0 mm 3 mps 743 mmHg 75%
    06:00 +20°C° 0 mm 4 mps 744 mmHg 72%
    07:00 +20°C° 0 mm 4 mps 744 mmHg 69%
    08:00 +20°C° 0 mm 5 mps 745 mmHg 65%
    09:00 +21°C° 0 mm 6 mps 746 mmHg 64%
    10:00 +21°C° 0 mm 8 mps 746 mmHg 62%
    11:00 +22°C° 0 mm 9 mps 747 mmHg 60%
    12:00 +22°C° 0 mm 9 mps 747 mmHg 58%
    13:00 +21°C° 0 mm 8 mps 747 mmHg 56%
    14:00 +21°C° 0 mm 8 mps 748 mmHg 55%
    15:00 +20°C° 0 mm 8 mps 748 mmHg 54%
    16:00 +18°C° 0 mm 7 mps 748 mmHg 54%
    17:00 +17°C° 0 mm 7 mps 748 mmHg 54%
    18:00 +17°C° 0 mm 6 mps 749 mmHg 54%
    19:00 +16°C° 0 mm 6 mps 749 mmHg 55%
    20:00 +16°C° 0 mm 5 mps 750 mmHg 56%
    21:00 +16°C° 0 mm 5 mps 750 mmHg 56%
    22:00 +16°C° 0 mm 5 mps 750 mmHg 56%
    23:00 +15°C° 0 mm 4 mps 751 mmHg 56%

    26 October, Friday

    Time Temperature Precipitation Wind Pressure Humidity
    00:00 +15°C° 0 mm 4 mps 751 mmHg 56%
    01:00 +15°C° 0 mm 4 mps 751 mmHg 56%
    02:00 +16°C° 0 mm 3 mps 751 mmHg 56%
    03:00 +16°C° 0 mm 3 mps 751 mmHg 57%
    04:00 +16°C° 0 mm 3 mps 751 mmHg 58%
    05:00 +16°C° 0 mm 3 mps 751 mmHg 59%
    06:00 +16°C° 0 mm 3 mps 751 mmHg 57%
    07:00 +17°C° 0 mm 3 mps 752 mmHg 56%
    08:00 +17°C° 0 mm 2 mps 752 mmHg 54%
    09:00 +18°C° 0 mm 2 mps 752 mmHg 48%
    10:00 +20°C° 0 mm 2 mps 753 mmHg 42%
    11:00 +22°C° 0 mm 1 mps 753 mmHg 36%
    12:00 +21°C° 0 mm 2 mps 753 mmHg 34%
    13:00 +23°C° 0 mm 2 mps 752 mmHg 32%
    14:00 +23°C° 0 mm 2 mps 752 mmHg 31%
    15:00 +23°C° 0 mm 2 mps 752 mmHg 33%
    16:00 +23°C° 0 mm 2 mps 752 mmHg 36%
    17:00 +21°C° 0 mm 2 mps 752 mmHg 38%
    18:00 +21°C° 0 mm 2 mps 753 mmHg 42%
    19:00 +20°C° 0 mm 2 mps 753 mmHg 46%
    20:00 +20°C° 0 mm 1 mps 753 mmHg 50%
    21:00 +20°C° 0 mm 1 mps 753 mmHg 51%
    22:00 +20°C° 0 mm 1 mps 753 mmHg 52%
    23:00 +19°C° 0 mm 1 mps 753 mmHg 53%

    27 October, Saturday

    Time Temperature Precipitation Wind Pressure Humidity
    00:00 +19°C° 0 mm 1 mps 753 mmHg 54%
    01:00 +19°C° 0 mm 1 mps 753 mmHg 55%
    02:00 +19°C° 0 mm 1 mps 753 mmHg 55%
    03:00 +18°C° 0 mm 1 mps 753 mmHg 57%
    04:00 +18°C° 0 mm 1 mps 753 mmHg 58%
    05:00 +18°C° 0 mm 1 mps 753 mmHg 60%
    06:00 +19°C° 0 mm 1 mps 753 mmHg 58%
    07:00 +19°C° 0 mm 2 mps 753 mmHg 56%
    08:00 +19°C° 0 mm 2 mps 753 mmHg 54%
    09:00 +20°C° 0 mm 2 mps 754 mmHg 52%
    10:00 +21°C° 0 mm 2 mps 754 mmHg 49%
    11:00 +23°C° 0 mm 2 mps 754 mmHg 46%
    12:00 +23°C° 0 mm 2 mps 753 mmHg 46%
    13:00 +23°C° 0 mm 2 mps 753 mmHg 45%
    14:00 +23°C° 0 mm 2 mps 753 mmHg 45%
    15:00 +23°C° 0 mm 2 mps 753 mmHg 46%
    16:00 +21°C° 0 mm 2 mps 752 mmHg 47%
    17:00 +21°C° 0 mm 2 mps 752 mmHg 49%
    18:00 +20°C° 0 mm 2 mps 753 mmHg 51%
    19:00 +20°C° 0 mm 2 mps 753 mmHg 53%
    20:00 +19°C° 0 mm 2 mps 753 mmHg 56%
    21:00 +19°C° 0 mm 3 mps 753 mmHg 57%
    22:00 +18°C° 0 mm 3 mps 753 mmHg 58%
    23:00 +18°C° 0 mm 3 mps 753 mmHg 59%

    28 October, Sunday

    Time Temperature Precipitation Wind Pressure Humidity
    00:00 +18°C° 0 mm 3 mps 753 mmHg 60%
    01:00 +18°C° 0 mm 3 mps 753 mmHg 60%
    02:00 +17°C° 0 mm 3 mps 752 mmHg 61%
    03:00 +17°C° 0 mm 3 mps 752 mmHg 61%
    04:00 +17°C° 0 mm 3 mps 752 mmHg 62%
    05:00 +17°C° 0 mm 3 mps 752 mmHg 62%
    06:00 +17°C° 0 mm 3 mps 752 mmHg 60%
    07:00 +18°C° 0 mm 3 mps 752 mmHg 57%
    08:00 +19°C° 0 mm 3 mps 753 mmHg 54%
    09:00 +20°C° 0 mm 3 mps 753 mmHg 51%
    10:00 +21°C° 0 mm 3 mps 753 mmHg 47%
    11:00 +21°C° 0 mm 3 mps 753 mmHg 44%
    12:00 +22°C° 0 mm 3 mps 753 mmHg 44%
    13:00 +22°C° 0 mm 3 mps 752 mmHg 43%
    14:00 +23°C° 0 mm 2 mps 752 mmHg 43%
    15:00 +23°C° 0 mm 2 mps 752 mmHg 46%
    16:00 +21°C° 0 mm 2 mps 751 mmHg 48%
    17:00 +21°C° 0 mm 2 mps 751 mmHg 51%
    18:00 +20°C° 0 mm 3 mps 751 mmHg 55%
    19:00 +20°C° 0 mm 3 mps 752 mmHg 58%
    20:00 +19°C° 0 mm 4 mps 752 mmHg 62%
    21:00 +19°C° 0 mm 4 mps 752 mmHg 63%
    22:00 +19°C° 0 mm 4 mps 752 mmHg 65%
    23:00 +19°C° 0 mm 4 mps 752 mmHg 67%

    29 October, Monday

    Time Temperature Precipitation Wind Pressure Humidity
    00:00 +18°C° 0 mm 4 mps 751 mmHg 67%
    01:00 +18°C° 0 mm 4 mps 751 mmHg 68%
    02:00 +18°C° 0 mm 4 mps 751 mmHg 69%
    03:00 +18°C° 0 mm 4 mps 750 mmHg 69%
    04:00 +18°C° 0 mm 4 mps 750 mmHg 69%
    05:00 +16°C° 0 mm 5 mps 750 mmHg 70%
    06:00 +17°C° 0 mm 5 mps 750 mmHg 68%
    07:00 +19°C° 0 mm 5 mps 750 mmHg 67%
    08:00 +20°C° 0 mm 5 mps 750 mmHg 65%
    09:00 +20°C° 0 mm 4 mps 750 mmHg 62%
    10:00 +21°C° 0 mm 4 mps 750 mmHg 59%
    11:00 +22°C° 0 mm 4 mps 750 mmHg 57%
    12:00 +22°C° 0 mm 4 mps 750 mmHg 57%
    13:00 +23°C° 0 mm 4 mps 750 mmHg 56%
    14:00 +23°C° 0 mm 4 mps 749 mmHg 56%
    15:00 +22°C° 0 mm 4 mps 749 mmHg 59%
    16:00 +22°C° 0 mm 4 mps 749 mmHg 61%
    17:00 +22°C° 0 mm 4 mps 749 mmHg 63%
    18:00 +21°C° 0 mm 4 mps 749 mmHg 66%
    19:00 +21°C° 0 mm 5 mps 749 mmHg 68%
    20:00 +21°C° 0 mm 5 mps 749 mmHg 70%
    21:00 +20°C° 0 mm 5 mps 749 mmHg 72%
    22:00 +20°C° 0 mm 5 mps 749 mmHg 74%
    23:00 +20°C° 0 mm 5 mps 750 mmHg 76%
    Show more